Regional Weather Roundup
Issued by NWS

Home | Current Version | Previous Version | Text Only | Print | Product List | Glossary On
Versions: 1 2 3 4 5 6 7 8 9 10 11 12 13 14 15 16 17 18 19 20 21 22 23 24 25 26 27 28 29 30 31 32 33 34 35 36 37 38 39 40 41 42 43 44 45 46 47 48 49 50
000
ASUS43 KOAX 150202
RWRNE

WEATHER ROUNDUP FOR NEBRASKA
NATIONAL WEATHER SERVICE OMAHA NE
900 PM CDT SUN SEP 14 2014

NOTES: SATELLITE DATA IS BEING USED TO AUGMENT CLOUD COVER ABOVE
       12000 FEET.
       "FAIR" INDICATES FEW OR NO CLOUDS BELOW 12,000 FEET WITH NO
       SIGNIFICANT WEATHER AND/OR OBSTRUCTIONS TO VISIBILITY.

  * THESE STATIONS DO NOT REPORT WEATHER SUCH AS RAIN...SNOW OR FOG.

NEZ001>004-019>022-054>056-150300-
NEBRASKA PANHANDLE

CITY           SKY/WX    TMP DP  RH WIND       PRES   REMARKS
SCOTTSBLUFF    CLEAR     58  48  69 N13       30.08R
ALLIANCE       PTCLDY    56  48  74 NE13      30.06R
CHADRON        CLEAR     51  43  74 NE8       30.11R
KIMBALL        MOCLDY    60  48  62 N12       30.07R
SIDNEY         PTCLDY    65  51  60 N9        30.05R
$$

NEZ057>060-069>072-079>082-150300-
SOUTHWEST NEBRASKA

CITY           SKY/WX    TMP DP  RH WIND       PRES   REMARKS
NORTH PLATTE   MOCLDY    59  55  87 E8        30.03R
IMPERIAL       CLOUDY    65  58  78 SE13      29.96F
LEXINGTON      MOCLDY    60  56  85 E9        30.04R
MCCOOK         MOCLDY    66  59  78 N7        30.06R
OGALLALA       CLEAR     65  58  78 E9        29.99S
$$

NEZ005>010-023>029-035>040-094-150300-
NORTH CENTRAL NEBRASKA

CITY           SKY/WX    TMP DP  RH WIND       PRES   REMARKS
VALENTINE      MOCLDY    52  43  71 NE12      30.11R
AINSWORTH      CLOUDY    56  47  71 E7        30.09R
BROKEN BOW     CLOUDY    63  55  75 SE7       30.05R
O`NEILL        CLOUDY    61  53  76 E8        30.08R
ORD            CLOUDY    59  55  87 E3        30.06R
THEDFORD       CLOUDY    63  56  77 NE5       30.06R
$$

NEZ041-046>049-061>064-073>077-083>087-150300-
SOUTH CENTRAL NEBRASKA

CITY           SKY/WX    TMP DP  RH WIND       PRES   REMARKS
GRAND ISLAND   CLOUDY    63  54  72 E5        30.06R
AURORA         CLOUDY    63  53  70 E5        30.05R
HASTINGS       PTCLDY    59  51  75 E7        30.03S
HEBRON         CLEAR     61  52  72 E5        30.03R
HOLDREGE       PTCLDY    58  54  88 NE8       30.03R
KEARNEY *      PTCLDY    55  52  88 NE8       30.05R
YORK           CLOUDY    63  55  77 E7        30.05S
$$

NEZ011>018-030>034-042>045-150300-
NORTHEAST NEBRASKA

CITY           SKY/WX    TMP DP  RH WIND       PRES   REMARKS
NORFOLK        CLOUDY    62  54  74 E8        30.07S
ALBION         CLOUDY    63  52  69 E6        30.07R
BLAIR          CLOUDY    63  53  70 E6        30.09R
COLUMBUS *     CLOUDY    63  54  72 E5        30.08R
FREMONT        CLOUDY    65  52  61 E6        30.08S
TEKAMAH        CLOUDY    62  55  77 NE6       30.09R
WAYNE          CLOUDY    60  54  80 E7        30.10R
$$

NEZ050>053-065>068-078-088>093-150300-
SOUTHEAST NEBRASKA

CITY           SKY/WX    TMP DP  RH WIND       PRES   REMARKS
LINCOLN        CLOUDY    67  53  61 SE6       30.08R
OMAHA EPPLEY   CLOUDY    65  52  62 E5        30.09R
BEATRICE       MOCLDY    64  54  71 E8        30.04R
FALLS CITY     CLOUDY    65  57  75 E8        30.07S
NEBRASKA CITY  CLOUDY    65  49  56 SE5       30.08S
PLATTSMOUTH    CLOUDY    64  52  65 E3        30.09R
$$

NEZ044-045-051>053-067-150300-
OMAHA AREA

CITY           SKY/WX    TMP DP  RH WIND       PRES   REMARKS
OMAHA EPPLEY   CLOUDY    65  52  62 E5        30.09R
BLAIR          CLOUDY    63  53  70 E6        30.09R
FREMONT        CLOUDY    65  52  61 E6        30.08S
OFFUTT AFB     CLOUDY    63  58  85 E6        30.08R
PLATTSMOUTH    CLOUDY    64  52  65 E3        30.09R
WAHOO          CLOUDY    63  54  73 E5        30.07S
$$


USA.gov is the U.S. government's official web portal to all federal, state and local government web resources and services.